Погода в Успеновке

Украина / Запорожская область     47°03′33″N   36°35′54″E
темп.,
°C
ветер,
м/с
пор.,
м/с
влажн.,
%
обл.,
%
осадки,
мм/ч
давл.,
гПа
погр.,
м
9 декабря, чт
чт923:00+7юв3794100 0.0 1008131
02:00+7юз389699 0.0 1009160
05:00+7юз489795 0.0 1011320
08:00+8юз597973 0.0 1013624
11:00+10юз686875 0.0 1015938
14:00+9юз577439 0.0 1016709
17:00+7ююз358384 0.0 1018258
20:00+7ююз3788100 0.0 1019350
10 декабря, пт
пт1023:00+7юз3890100 0.0 1020396
02:00+7ююз2595100 0.0 1021223
05:00+7ю2494100 0.0 1022131
08:00+7юв259174 0.0 1023177
11:00+10юв46745 0.0 1023490
14:00+10юв56745 0.0 1023505
17:00+7вюв49895 0.0 1023221
20:00+6в5119254 0.0 1023273
11 декабря, сб
сб1123:00+6в51294100 0.0 1023293
02:00+6в61395100 0.0 1022340
05:00+5в81589100 0.0 1021390
08:00+5в81687100 0.0 1022435
11:00+7вюв9137494 0.0 1022465
14:00+6в712745 0.0 1022432
17:00+4в61282100 0.0 1024353
20:00+4в6128498 0.0 1024336
12 декабря, вс
вс1223:00+3в7138511 0.0 1024304
02:00+3в7138620 0.0 1024305
05:00+3в81586100 0.0 1024346
08:00+3в81585100 0.0 1024394
11:00+5в91673100 0.0 1023451
14:00+5в101768100 0.0 1022473
17:00+5в101866100 0.0 1022520
20:00+4в101864100 0.0 1021495
13 декабря, пн
пн1323:00+4в101766100 0.0 1021475
02:00+3в101770100 0.0 1020437
05:00+3в101674100 0.0 1019417
08:00+3в91578100 0.0 1019422
11:00+5в81372100 0.0 1019468
14:00+5в71173100 0.0 1019453
17:00+4в71279100 0.0 1019382
20:00+4в71277100 0.0 1019398